FW2218 Weather Reports


Display with metric or nautical units.
time (UTC)temp
F
wind
direction
speed
MPH
gust
MPH
rain 1hr
in
rain 24hr
in
rain mn
in
humidity
%
barometer
mb
20260903194536 66 339 3.0 7.0 0.00 0.15 0.00 60 1005.5
20260903193030 65 333 2.0 5.0 0.00 0.15 0.00 61 1005.9
20260903191604 66 9 1.0 4.0 0.00 0.15 0.00 59 1006.0
20260903190031 65 310 2.0 5.0 0.00 0.15 0.00 63 1006.0
20260903184529 63 324 2.0 5.0 0.00 0.15 0.00 67 1006.3
20260903181532 61 312 1.0 4.0 0.00 5.27 0.00 72 1006.6
20260903180106 60 302 2.0 4.0 0.00 5.27 0.00 75 1006.5
20260903174529 59 231 0.0 4.0 0.00 5.27 0.00 76 1006.5
20260903173031 59 360 0.0 3.0 0.00 5.27 0.00 77 1006.5
20260903171530 58 295 0.0 3.0 0.00 5.27 0.00 78 1006.5
20260903170036 58 293 0.0 4.0 0.00 5.27 0.00 79 1006.7
20260903164529 57 325 0.0 4.0 0.00 5.27 0.00 78 1006.7
20260903163038 57 258 1.0 3.0 0.00 5.27 0.00 79 1006.7
20260903161645 56 289 1.0 4.0 0.00 5.27 0.00 81 1006.8
20260903160037 56 277 1.0 4.0 0.00 5.27 0.00 82 1006.9
20260903151529 53 112 1.0 3.0 0.00 5.27 0.00 86 1006.8
20260903150031 52 82 2.0 3.0 0.00 5.27 0.00 89 1006.7
20260903144535 52 271 0.0 2.0 0.00 5.27 0.00 90 1006.6
20260903143030 51 270 0.0 0.0 0.00 5.27 0.00 90 1006.6
20260903140032 51 270 0.0 3.0 0.00 5.27 0.00 88 1006.5
20260903134604 51 233 1.0 4.0 0.00 5.27 0.00 87 1006.3
20260903131529 51 112 3.0 5.0 0.00 5.27 0.00 88 1006.0
20260903130030 50 112 2.0 5.0 0.00 5.27 0.00 90 1006.1
20260903124529 50 112 1.0 4.0 0.00 5.27 0.00 91 1006.1
20260903123037 51 112 0.0 2.0 0.00 5.27 0.00 91 1006.1
20260903121529 51 112 0.0 3.0 0.00 5.27 0.00 91 1006.1
20260903114531 50 270 0.0 1.0 0.00 5.27 0.00 88 1006.0
20260903111527 51 187 0.0 2.0 0.00 5.27 0.00 88 1005.7
20260903110108 52 109 2.0 4.0 0.00 5.27 0.00 86 1005.4
20260903104537 53 353 1.0 4.0 0.00 5.27 0.00 85 1005.4
20260903103027 53 107 4.0 5.0 0.00 5.27 0.00 87 1005.5
20260903101529 53 120 3.0 7.0 0.00 5.27 0.00 89 1005.5
20260903100030 53 225 0.0 2.0 0.00 5.27 0.00 88 1005.6
20260903094532 53 225 0.0 2.0 0.00 5.27 0.00 86 1005.3
20260903091529 53 114 1.0 2.0 0.00 5.27 0.00 82 1005.3
20260903090030 54 112 3.0 4.0 0.00 5.27 0.00 82 1005.2
20260903084529 53 112 2.0 4.0 0.00 5.27 0.00 85 1005.1
20260903083032 53 327 0.0 3.0 0.00 5.27 0.00 84 1005.2
20260903081531 53 97 2.0 5.0 0.00 5.27 0.00 85 1005.1
20260903080030 53 127 0.0 1.0 0.00 5.27 0.00 85 1005.0
20260903074532 54 157 1.0 3.0 0.00 5.27 0.00 86 1004.7
20260903073030 55 272 0.0 4.0 0.00 5.27 0.00 89 1004.6
20260903071542 55 298 0.0 1.0 0.00 5.27 0.00 90 1004.7
20260903070035 55 293 0.0 5.0 0.00 5.27 0.00 90 1004.5
20260903064529 55 247 0.0 2.0 0.00 5.27 5.27 90 1004.5
20260903063028 55 225 1.0 4.0 0.00 5.27 5.27 90 1004.6
20260903061531 56 123 0.0 1.0 0.00 5.27 5.27 89 1004.5
20260903060032 57 112 1.0 4.0 0.00 5.27 5.27 89 1004.5
20260903053029 57 199 1.0 5.0 0.00 5.27 5.27 91 1004.5
20260903051531 57 260 2.0 8.0 0.00 5.27 5.27 91 1004.4
20260903050106 57 288 2.0 7.0 0.00 5.27 5.27 91 1004.2
20260903044530 57 291 1.0 5.0 0.00 5.27 5.27 91 1004.2
20260903043039 57 269 1.0 6.0 0.00 5.27 5.27 90 1004.2
20260903031531 58 243 3.0 6.0 0.10 5.26 5.25 87 1003.1
20260903030031 60 233 6.0 17.0 0.09 5.25 5.16 86 1002.9
20260903024646 61 243 4.0 10.0 0.00 5.16 5.16 88 1002.6
20260903023029 61 177 2.0 3.0 0.00 5.16 5.16 89 1002.2
20260903021531 61 190 2.0 4.0 0.01 5.16 5.16 88 1002.3
20260903020036 61 244 1.0 3.0 0.01 5.16 5.16 87 1002.2
20260903014605 61 270 1.0 3.0 0.01 5.16 5.16 87 1002.3
20260903013146 62 273 2.0 5.0 0.01 5.16 5.15 85 1002.4
20260903011529 62 264 0.0 3.0 0.00 5.15 5.15 85 1002.4
20260903010031 62 255 2.0 5.0 0.00 5.15 5.15 83 1002.5
20260903004530 63 241 1.0 4.0 0.00 5.15 5.15 78 1002.5
20260903003028 63 325 0.0 2.0 0.00 5.15 5.15 77 1002.4
20260903001644 63 346 0.0 3.0 0.00 5.15 5.15 78 1002.5
20260903000030 63 7 1.0 4.0 0.00 5.15 5.15 77 1002.5
20260902234534 63 356 1.0 4.0 0.00 5.15 5.15 80 1002.6
20260902231644 63 1 1.0 5.0 0.00 5.15 5.15 78 1002.6
20260902230033 62 44 3.0 6.0 0.00 5.15 5.15 78 1002.6
20260902224538 63 349 2.0 4.0 0.00 5.15 5.15 79 1002.5
20260902223031 63 52 1.0 6.0 0.00 5.15 5.15 78 1002.4
20260902221527 62 65 1.0 4.0 0.01 5.15 5.15 79 1002.5
20260902220031 62 58 2.0 5.0 0.02 5.15 5.15 80 1002.4
20260902214534 62 43 2.0 6.0 0.02 5.15 5.15 81 1002.5
20260902213028 63 55 2.0 6.0 0.02 5.15 5.14 79 1002.7
20260902211607 63 69 2.0 4.0 0.01 5.14 5.13 76 1002.9
20260902210028 64 31 1.0 4.0 0.01 5.13 5.13 75 1002.9
20260902203031 65 9 1.0 4.0 0.01 5.13 5.13 72 1002.7
20260902201647 64 264 0.0 2.0 0.01 5.13 5.12 72 1002.7
20260902200030 65 233 2.0 5.0 0.00 5.12 5.12 70 1002.8